CW0395 Weather Reports


time (UTC)temp
C
wind
direction
speed
KPH
gust
KPH
rain 1hr
cm
rain 24hr
cm
rain mn
cm
humidity
%
barometer
mb
20260507020900 9 299 0.0 0.0 0.00 0.81 0.48 73 1015.5
20260507015900 10 299 0.0 0.0 0.00 0.84 0.48 72 1015.5
20260507014902 10 299 0.0 0.0 0.00 0.89 0.48 72 1015.5
20260507013902 10 299 0.0 0.0 0.00 0.91 0.48 72 1015.4
20260507012902 10 299 0.0 0.0 0.00 0.97 0.48 71 1015.5
20260507012339 11 299 0.0 0.0 0.00 0.99 0.48 69 1015.5
20260507010901 11 301 0.0 1.6 0.00 1.02 0.48 69 1015.3
20260507005902 11 301 0.0 3.2 0.00 1.04 0.48 70 1015.2
20260507004903 11 299 0.0 3.2 0.00 1.04 0.48 66 1014.9
20260507004353 11 292 0.0 3.2 0.00 1.07 0.48 66 1014.9
20260507002903 11 289 0.0 4.8 0.00 1.09 0.48 66 1014.8
20260507001901 11 290 0.0 3.2 0.00 1.09 0.48 63 1014.7
20260507000901 11 288 1.6 4.8 0.00 1.12 0.48 63 1014.6
20260506235900 12 287 0.0 4.8 0.00 1.12 0.48 62 1014.5
20260506234901 12 317 3.2 8.0 0.00 1.14 0.48 62 1014.7
20260506233901 12 284 3.2 6.4 0.00 1.17 0.48 60 1014.4
20260506232901 12 296 3.2 6.4 0.00 1.19 0.48 60 1014.3
20260506231901 12 305 3.2 9.7 0.00 1.24 0.48 57 1014.6
20260506230901 12 5 3.2 8.0 0.00 1.27 0.48 59 1014.8
20260506225901 12 315 3.2 11.3 0.00 1.30 0.48 58 1014.9
20260506224902 12 279 3.2 12.9 0.00 1.32 0.48 60 1014.8
20260506223902 12 306 3.2 8.0 0.00 1.32 0.48 59 1014.9
20260506222901 12 220 3.2 8.0 0.00 1.32 0.48 58 1014.9
20260506222340 13 313 3.2 6.4 0.00 1.32 0.48 57 1015.0
20260506220901 13 322 3.2 8.0 0.00 1.35 0.48 57 1014.8
20260506215901 13 299 3.2 6.4 0.00 1.37 0.48 60 1014.4
20260506214901 13 22 3.2 11.3 0.00 1.40 0.48 56 1014.3
20260506214349 13 305 1.6 8.0 0.00 1.42 0.48 57 1014.3
20260506212900 13 298 3.2 6.4 0.00 1.45 0.48 58 1014.1
20260506211901 13 304 4.8 11.3 0.00 1.50 0.48 55 1014.1
20260506210901 13 291 3.2 6.4 0.00 1.85 0.48 58 1014.2
20260506205901 13 302 3.2 6.4 0.00 1.85 0.48 59 1014.1
20260506205340 13 355 3.2 6.4 0.00 1.85 0.48 56 1014.2
20260506203901 13 277 3.2 8.0 0.00 1.85 0.48 57 1014.0
20260506202901 13 296 3.2 8.0 0.00 1.85 0.48 57 1014.0
20260506201902 13 273 3.2 11.3 0.00 1.85 0.48 58 1013.8
20260506200901 13 323 3.2 8.0 0.00 1.85 0.48 57 1013.9
20260506195901 13 286 3.2 9.7 0.00 1.85 0.48 58 1014.0
20260506194902 13 280 4.8 9.7 0.00 1.85 0.48 57 1013.9
20260506193902 13 341 3.2 11.3 0.00 1.85 0.48 58 1013.9
20260506193344 13 333 4.8 14.5 0.00 1.85 0.48 57 1013.8
20260506191903 14 309 3.2 8.0 0.00 1.85 0.48 55 1014.0
20260506190902 15 292 3.2 11.3 0.00 1.85 0.48 58 1013.8
20260506190336 15 329 4.8 11.3 0.00 1.85 0.48 55 1013.7
20260506184902 15 323 4.8 8.0 0.00 1.85 0.48 56 1013.6
20260506184343 15 298 3.2 9.7 0.00 1.85 0.48 58 1013.7
20260506182901 15 0 4.8 14.5 0.00 1.85 0.48 59 1013.5
20260506180902 15 315 4.8 11.3 0.00 1.85 0.48 60 1013.8
20260506180335 15 279 4.8 12.9 0.00 1.85 0.48 57 1013.9
20260506175336 15 61 3.2 12.9 0.00 1.85 0.48 59 1013.8
20260506173902 14 343 4.8 12.9 0.00 1.85 0.48 59 1013.9
20260506172902 15 309 3.2 8.0 0.00 1.85 0.48 60 1013.9
20260506171902 14 71 3.2 9.7 0.00 1.85 0.48 63 1013.9
20260506170903 14 60 4.8 9.7 0.00 1.85 0.48 59 1013.8
20260506165902 14 318 3.2 11.3 0.00 1.85 0.48 59 1013.9
20260506164902 13 155 3.2 9.7 0.00 1.85 0.48 63 1014.0
20260506162903 13 350 3.2 12.9 0.00 1.85 0.48 62 1014.1
20260506161901 13 12 3.2 11.3 0.00 1.85 0.48 66 1014.2
20260506160902 13 317 3.2 9.7 0.00 1.85 0.48 66 1014.1
20260506155902 12 344 3.2 8.0 0.00 1.85 0.48 67 1013.7
20260506154901 12 303 4.8 8.0 0.00 1.85 0.48 69 1013.5
20260506153902 12 351 3.2 8.0 0.00 1.85 0.48 70 1013.4
20260506152902 12 340 3.2 8.0 0.00 1.85 0.48 71 1013.3
20260506151901 11 83 3.2 6.4 0.00 1.85 0.48 69 1013.4
20260506150902 11 291 3.2 11.3 0.00 1.85 0.48 71 1013.3
20260506145901 11 289 3.2 6.4 0.03 1.85 0.48 72 1012.8
20260506144901 10 332 3.2 8.0 0.03 1.85 0.48 76 1012.9
20260506143903 10 27 3.2 12.9 0.03 1.85 0.48 73 1013.1
20260506142901 10 317 1.6 6.4 0.03 1.85 0.48 77 1013.0
20260506141901 10 323 3.2 6.4 0.03 1.85 0.48 79 1012.8
20260506140902 10 161 1.6 8.0 0.03 1.85 0.48 81 1012.6
20260506135902 9 274 3.2 9.7 0.00 1.83 0.46 83 1012.3
20260506134901 8 0 3.2 12.9 0.00 1.83 0.46 84 1012.3
20260506133902 8 294 3.2 9.7 0.00 1.83 0.46 85 1012.2
20260506133338 8 306 3.2 6.4 0.00 1.83 0.46 89 1012.0
20260506131901 8 295 0.0 4.8 0.00 1.83 0.46 90 1012.0
20260506130901 7 311 1.6 4.8 0.00 1.83 0.46 90 1012.1
20260506130343 7 5 3.2 6.4 0.00 1.83 0.46 91 1012.1
20260506124900 7 326 1.6 6.4 0.00 1.83 0.46 92 1012.2
20260506123900 7 309 3.2 8.0 0.00 1.83 0.46 93 1011.9
20260506122900 7 301 1.6 4.8 0.00 1.83 0.46 94 1011.4
20260506121901 7 294 3.2 9.7 0.00 1.83 0.46 95 1011.2
20260506120900 7 309 3.2 9.7 0.00 1.83 0.46 95 1011.0
20260506115900 7 292 0.0 3.2 0.00 1.83 0.46 95 1011.0
20260506114900 7 319 1.6 4.8 0.00 1.83 0.46 95 1011.1
20260506113900 7 206 0.0 1.6 0.00 1.83 0.46 95 1011.3
20260506113342 7 317 3.2 6.4 0.00 1.83 0.46 95 1011.1
20260506111900 7 288 1.6 6.4 0.00 1.83 0.46 96 1010.5
20260506110901 7 86 1.6 4.8 0.00 1.83 0.46 96 1009.8
20260506105901 7 323 3.2 4.8 0.00 1.83 0.46 96 1009.9
20260506104900 7 338 1.6 6.4 0.00 1.83 0.46 96 1010.3
20260506103902 7 292 1.6 4.8 0.00 1.83 0.46 96 1010.1
20260506103341 7 302 1.6 8.0 0.00 1.83 0.46 96 1010.1
20260506101903 7 342 1.6 6.4 0.00 1.83 0.46 96 1010.1
20260506100902 7 342 1.6 4.8 0.00 1.83 0.46 96 1009.7
20260506095903 7 330 1.6 6.4 0.00 1.83 0.46 96 1008.9
20260506094900 7 344 1.6 3.2 0.03 1.83 0.46 96 1009.1
20260506093901 7 329 1.6 4.8 0.05 1.83 0.46 96 1009.2
20260506092900 7 317 1.6 6.4 0.05 1.83 0.46 95 1008.7
20260506092345 7 32 3.2 6.4 0.08 1.83 0.46 95 1009.3
20260506090901 7 313 3.2 12.9 0.10 1.83 0.46 95 1009.4
20260506085901 7 270 3.2 8.0 0.10 1.83 0.46 95 1008.8
20260506084900 7 18 3.2 8.0 0.10 1.80 0.43 95 1008.9
20260506084334 7 107 3.2 6.4 0.08 1.78 0.41 95 1009.2
20260506082901 7 327 1.6 8.0 0.08 1.78 0.41 95 1009.3
20260506081901 7 41 1.6 6.4 0.05 1.75 0.38 95 1009.2
20260506080902 7 336 3.2 9.7 0.05 1.73 0.36 95 1009.0
20260506072902 7 305 3.2 8.0 0.13 1.70 0.33 95 1008.5
20260506070902 7 337 3.2 14.5 0.15 1.68 0.30 95 1008.6
20260506061901 8 341 3.2 9.7 0.10 1.55 0.18 95 1008.7
20260506060901 8 336 3.2 9.7 0.10 1.52 0.15 95 1008.9
20260506050904 9 290 3.2 6.4 0.05 1.42 0.05 95 1008.8
20260506050340 9 289 1.6 4.8 0.03 1.40 0.03 95 1009.0
20260506044901 9 314 1.6 6.4 0.00 1.37 0.00 95 1009.2
20260506043902 9 11 1.6 6.4 0.00 1.37 0.00 95 1008.8
20260506042901 9 258 1.6 11.3 0.03 1.37 0.00 95 1008.9
20260506041901 9 39 3.2 6.4 0.05 1.37 0.00 95 1008.9
20260506040900 9 0 1.6 6.4 0.08 1.37 0.00 95 1008.9
20260506035901 10 343 1.6 6.4 0.15 1.37 1.37 94 1009.0
20260506034901 10 134 1.6 8.0 0.20 1.37 1.37 95 1009.1
20260506033901 10 107 1.6 6.4 0.25 1.37 1.37 95 1009.2
20260506032902 10 54 0.0 4.8 0.25 1.35 1.35 94 1009.3
20260506030901 10 296 3.2 6.4 0.25 1.30 1.27 94 1009.8
20260506025902 10 329 3.2 11.3 0.20 1.22 1.22 94 1009.8
20260506023902 11 17 4.8 11.3 0.18 1.12 1.12 92 1009.3
20260506022901 13 190 3.2 6.4 0.20 1.09 1.09 92 1009.3
20260506021901 15 284 0.0 3.2 0.20 1.07 1.07 95 1009.3